[[{"header":{"parameterUnit":"m.s-1","parameterCategory":1,"la1":30.2991,"la2":30.254,"lo1":-89.0895,"lo2":-89.0444,"dy":0.0017,"dx":0.0017,"nx":28,"ny":28,"refTime":"2025-04-03T21:00:00:Z","depth":0,"parameterNumber":2,"parameterNumberName":"U-component_of_WINDS"},"data":[0,0,0,0,0,0,0,0,0,0,0,0,0,0,0,0,0,0,0,0,0,0,0,0,0,0,0,0,0,0,0,0,0,0,0,0,0,0,0,0,0,0,0,0,0,0,0,0,0,0,0,0,0,0,0,0,0,0,-5.3107,-5.3108,0,-5.3221,-5.3223,-5.3224,-5.3209,-5.3207,-5.3205,-5.3203,-5.3319,-5.3324,-5.3328,0,0,0,0,0,0,0,0,0,0,0,0,0,-5.2873,-5.2878,-5.3107,-5.3108,-5.3109,-5.3221,-5.3223,-5.3224,-5.3209,-5.3207,-5.3205,-5.3203,-5.3317,-5.3323,-5.3329,0,0,0,0,0,0,0,0,0,0,0,0,0,-5.298,-5.2879,-5.3106,-5.3115,-5.3117,-5.3221,-5.3223,-5.3225,-5.321,-5.3207,-5.3204,-5.3201,-5.3315,-5.3322,-5.333,-5.3431,0,0,-5.3352,-5.3355,0,0,0,0,0,0,0,0,-5.2974,-5.2989,-5.3113,-5.3115,-5.3117,-5.3198,-5.3183,-5.3294,-5.321,-5.3175,-5.3203,-5.32,-5.3281,-5.3291,-5.3318,-5.3436,-5.3441,-5.3352,-5.3357,-5.336,-5.3362,0,0,0,0,0,0,0,-5.2967,-5.2984,-5.3152,-5.3114,-5.3117,-5.3114,-5.3126,-5.3204,-5.3242,-5.3178,-5.3177,-5.3191,-5.3282,-5.3311,-5.3321,-5.3443,-5.3352,-5.3359,-5.3363,-5.3366,-5.3649,-5.3652,0,0,0,0,0,0,-5.2957,-5.2977,-5.3148,-5.3155,-5.3037,-5.312,-5.3133,-5.3175,-5.3241,-5.3249,-5.3193,-5.319,-5.33,-5.3313,-5.3325,-5.3446,-5.336,-5.3367,-5.3371,-5.3646,-5.365,-5.3653,0,0,0,0,0,0,-5.2952,-5.2972,-5.3144,-5.3066,-5.3088,-5.3127,-5.3174,-5.3179,-5.3208,-5.3253,-5.3259,-5.3216,-5.3299,-5.3315,-5.3405,-5.345,-5.337,-5.3376,-5.3642,-5.3647,-5.3651,-5.3691,0,0,0,0,0,0,-5.2945,-5.2971,-5.301,-5.3067,-5.3092,-5.3222,-5.3177,-5.3183,-5.3221,-5.3218,-5.3277,-5.3284,-5.3298,-5.3394,-5.3412,-5.3459,-5.3382,-5.3638,-5.3644,-5.365,-5.3686,-5.3696,-5.3706,0,0,0,0,0,-5.2937,-5.3016,-5.3012,-5.3032,-5.3141,-5.3224,-5.3238,-5.3253,-5.3225,-5.3264,-5.3293,-5.3282,-5.3443,-5.3403,-5.3423,-5.3473,-5.3635,-5.3642,-5.3649,-5.3681,-5.3694,-5.3705,0,0,0,0,0,0,-5.2961,-5.3023,-5.3019,-5.3119,-5.3167,-5.3221,-5.3271,-5.3267,-5.3323,-5.3317,-5.3334,-5.3347,-5.3437,-5.3465,-5.3419,-5.3574,-5.3535,-5.3547,-5.3552,-5.3565,-5.3575,-5.3565,-5.3388,0,0,0,0,0,-5.2978,-5.3041,-5.3092,-5.3175,-5.3199,-5.3231,-5.3268,-5.3276,-5.3325,-5.3345,-5.338,-5.3428,-5.349,-5.353,-5.3589,-5.3691,-5.3703,-5.3735,-5.3745,-5.3753,-5.3762,-5.3817,-5.3832,-5.3677,-5.3676,-5.3676,0,0,-5.3014,-5.3056,-5.3094,-5.3181,-5.3218,-5.3282,-5.3248,-5.3317,-5.3364,-5.3355,-5.3441,-5.347,-5.3524,-5.3621,-5.3665,-5.3646,-5.3808,-5.3763,-5.3769,-5.3773,-5.3826,-5.3841,-5.3854,-5.3681,-5.368,-5.368,0,0,-5.311,-5.3149,-5.3222,-5.3261,-5.3319,-5.334,-5.3358,-5.3414,-5.3432,-5.352,-5.3515,-5.3571,-5.3677,-5.3716,-5.375,-5.3864,-5.3855,-5.3883,-5.3934,-5.3987,-5.4,-5.401,-5.4049,-5.4063,-5.3892,-5.3892,-5.3892,0,-5.3146,-5.3242,-5.326,-5.3329,-5.3367,-5.3364,-5.3438,-5.3475,-5.3549,-5.3575,-5.3554,-5.3687,-5.3724,-5.3829,-5.3857,-5.3885,-5.3905,-5.3874,-5.3997,-5.4008,-5.4018,-5.4055,-5.407,-5.3895,-5.3895,-5.3895,-5.3894,0,-5.3283,-5.335,-5.3402,-5.3474,-5.3519,-5.359,-5.3618,-5.3661,-5.3666,-5.369,-5.3779,-5.3824,-5.3891,-5.3918,-5.3923,-5.4023,-5.401,-5.3993,-5.3953,-5.4035,-5.407,-5.4085,-5.3899,-5.3898,-5.3897,-5.3897,0,0,-5.3394,-5.3477,-5.3495,-5.3528,-5.3593,-5.3645,-5.3717,-5.3784,-5.382,-5.3872,-5.3931,-5.4022,-5.4007,-5.4046,-5.4056,-5.4103,-5.4189,-5.408,-5.4082,-5.4097,-5.43,-5.431,-5.4326,-5.4185,-5.4188,-5.419,-5.4295,0,-5.3495,-5.3621,-5.364,-5.3751,-5.3813,-5.3812,-5.3875,-5.3921,-5.3946,-5.4001,-5.4029,-5.4092,-5.4068,-5.4091,-5.4139,-5.4168,-5.4229,-5.4161,-5.4238,-5.4241,-5.4221,-5.4345,-5.4356,-5.4452,-5.4309,-5.4311,-5.4313,0,-5.3628,-5.3684,-5.3802,-5.3859,-5.3885,-5.3941,-5.4004,-5.4058,-5.4111,-5.4126,-5.417,-5.4175,-5.4248,-5.4209,-5.431,-5.4263,-5.4297,-5.4317,-5.4321,-5.4326,-5.4279,-5.4351,-5.4484,-5.4497,-5.4335,-5.4333,-5.4332,0,-5.3694,-5.38,-5.3884,-5.3912,-5.3981,-5.402,-5.4051,-5.4101,-5.4141,-5.4197,-5.4222,-5.4286,-5.432,-5.4369,-5.4391,-5.436,-5.449,-5.4453,-5.4503,-5.4502,-5.4527,-5.4525,-5.4664,-5.4554,-5.4554,-5.4554,-5.4554,0,-5.3803,-5.3874,-5.3914,-5.3965,-5.4045,-5.4067,-5.4146,-5.4175,-5.422,-5.4277,-5.4282,-5.4334,-5.4361,-5.4418,-5.4437,-5.4517,-5.4533,-5.4546,-5.4549,-5.4544,-5.4541,-5.4563,-5.4556,-5.4558,-5.4557,-5.4556,-5.4555,0,-5.3888,-5.3919,-5.401,-5.4068,-5.4085,-5.4141,-5.4191,-5.4241,-5.4266,-5.4338,-5.4356,-5.4396,-5.4463,-5.4491,-5.4574,-5.4586,-5.4677,-5.4677,-5.4659,-5.4659,-5.4707,-5.4701,-5.4863,-5.4884,-5.4763,-5.4764,-5.4765,0,-5.3954,-5.4009,-5.4074,-5.4113,-5.4144,-5.4207,-5.4247,-5.4272,-5.4314,-5.4379,-5.442,-5.4488,-5.4543,-5.4651,-5.4687,-5.475,-5.475,-5.4802,-5.4759,-5.4752,-5.4747,-5.4743,-5.4747,-5.4809,-5.481,-5.4811,-5.4812,0,-5.4066,-5.4079,-5.4137,-5.4202,-5.425,-5.4302,-5.4352,-5.4384,-5.4416,-5.4463,-5.4532,-5.4575,-5.466,-5.4727,-5.4793,-5.4824,-5.4823,-5.4826,-5.4841,-5.4834,-5.482,-5.4825,-5.4677,-5.4821,-5.482,-5.482,-5.4819,-5.4819,-5.4142,-5.4191,-5.4244,-5.4309,-5.435,-5.4398,-5.4447,-5.4479,-5.4538,-5.4609,-5.462,-5.4694,-5.4747,-5.4835,-5.4869,-5.4927,-5.4913,-5.4935,-5.494,-5.4944,-5.4946,-5.4814,-5.494,-5.4939,-5.4939,-5.4939,-5.4939,0,-5.4252,-5.4287,-5.4347,-5.4418,-5.4469,-5.4467,-5.4523,-5.4565,-5.463,-5.468,-5.4734,-5.4814,-5.488,-5.4922,-5.4987,-5.5026,-5.5027,-5.5042,-5.5037,-5.5044,-5.4956,-5.4935,-5.504,-5.5039,-5.5039,-5.5039,-5.5039,-5.5039,-5.4315,-5.4397,-5.4416,-5.4518,-5.4553,-5.4626,-5.4658,-5.4701,-5.4741,-5.483,-5.4884,-5.4912,-5.4958,-5.5028,-5.5087,-5.5098,-5.5121,-5.5136,-5.5146,-5.5061,-5.5051,-5.504,-5.5021,-5.5142,-5.5142,-5.5229,-5.523,-5.5231]},{"header":{"parameterUnit":"m.s-1","parameterCategory":1,"la1":30.2991,"la2":30.254,"lo1":-89.0895,"lo2":-89.0444,"dy":0.0017,"dx":0.0017,"nx":28,"ny":28,"refTime":"2025-04-03T21:00:00:Z","depth":0,"parameterNumber":3,"parameterNumberName":"V-component_of_WINDS"},"data":[0,0,0,0,0,0,0,0,0,0,0,0,0,0,0,0,0,0,0,0,0,0,0,0,0,0,0,0,0,0,0,0,0,0,0,0,0,0,0,0,0,0,0,0,0,0,0,0,0,0,0,0,0,0,0,0,0,0,3.8002,3.8003,0,3.8135,3.8137,3.8138,3.8168,3.8167,3.8166,3.8165,3.83,3.8304,3.8309,0,0,0,0,0,0,0,0,0,0,0,0,0,3.7772,3.7776,3.8001,3.8003,3.8005,3.8135,3.8137,3.8139,3.8168,3.8167,3.8166,3.8165,3.8299,3.8304,3.8309,0,0,0,0,0,0,0,0,0,0,0,0,0,3.7885,3.7777,3.8001,3.8035,3.804,3.8135,3.8137,3.8139,3.8168,3.8167,3.8166,3.8164,3.8297,3.8303,3.831,3.838,0,0,3.833,3.8333,0,0,0,0,0,0,0,0,3.7879,3.7894,3.8029,3.8033,3.8038,3.8134,3.8105,3.822,3.8169,3.8119,3.8165,3.8164,3.8246,3.8256,3.8285,3.8386,3.8392,3.8331,3.8335,3.8338,3.834,0,0,0,0,0,0,0,3.7871,3.7888,3.8054,3.803,3.8036,3.8044,3.8059,3.8127,3.8189,3.8124,3.8126,3.8142,3.8248,3.8278,3.8288,3.8394,3.8331,3.8337,3.8341,3.8344,3.8563,3.8565,0,0,0,0,0,0,3.7857,3.7881,3.805,3.8058,3.7953,3.8049,3.8066,3.8104,3.8188,3.82,3.8143,3.8143,3.8267,3.828,3.8293,3.8383,3.8338,3.8344,3.8348,3.8562,3.8564,3.8566,0,0,0,0,0,0,3.7852,3.7872,3.8045,3.7971,3.7993,3.8055,3.8098,3.8108,3.8138,3.8203,3.8214,3.8162,3.8267,3.8283,3.8359,3.8388,3.8347,3.8353,3.856,3.8562,3.8565,3.8562,0,0,0,0,0,0,3.7845,3.787,3.7897,3.7971,3.7997,3.8108,3.81,3.8111,3.815,3.8151,3.8224,3.8235,3.8267,3.8349,3.8366,3.8396,3.8359,3.8557,3.8561,3.8564,3.856,3.8564,3.8568,0,0,0,0,0,3.7837,3.7889,3.7898,3.7918,3.8032,3.811,3.8125,3.8162,3.8152,3.818,3.8222,3.8232,3.8382,3.8356,3.8376,3.8409,3.8556,3.856,3.8564,3.8558,3.8563,3.8568,0,0,0,0,0,0,3.7815,3.7899,3.791,3.7988,3.8042,3.8115,3.8151,3.8166,3.8223,3.8221,3.8264,3.828,3.8354,3.8389,3.8359,3.8483,3.8468,3.8477,3.8457,3.8463,3.8467,3.8458,3.8364,0,0,0,0,0,3.7819,3.7876,3.7947,3.8008,3.8035,3.8088,3.8124,3.8148,3.8205,3.8228,3.8275,3.833,3.839,3.8428,3.8486,3.8565,3.8583,3.8597,3.8601,3.8605,3.8611,3.8659,3.8667,3.8579,3.8579,3.8579,0,0,3.7829,3.7882,3.7914,3.8005,3.805,3.8109,3.8107,3.8168,3.8212,3.8237,3.8312,3.8349,3.8413,3.8491,3.8528,3.8523,3.864,3.861,3.8612,3.8617,3.8664,3.8672,3.8679,3.8582,3.8582,3.8581,0,0,3.7876,3.7921,3.7979,3.8025,3.8093,3.8129,3.8143,3.8215,3.8241,3.8317,3.8338,3.8391,3.8492,3.8538,3.8575,3.8643,3.8656,3.8661,3.8683,3.8728,3.8735,3.8742,3.8769,3.8777,3.8667,3.8667,3.8667,0,3.7878,3.7967,3.8007,3.8068,3.8109,3.8135,3.8195,3.8237,3.8321,3.8348,3.8341,3.8472,3.8516,3.8607,3.8624,3.8652,3.8671,3.8653,3.8731,3.8738,3.8745,3.8771,3.878,3.8668,3.8668,3.8668,3.8667,0,3.7969,3.803,3.8069,3.8151,3.8196,3.8256,3.8305,3.8346,3.8367,3.8403,3.8483,3.8538,3.861,3.8633,3.8652,3.8728,3.8723,3.8723,3.8709,3.8753,3.8778,3.8788,3.8668,3.8668,3.8668,3.8668,0,0,3.8004,3.811,3.8124,3.8163,3.8242,3.829,3.8353,3.8424,3.8459,3.8516,3.8571,3.8658,3.866,3.8702,3.8727,3.8767,3.8821,3.8763,3.8765,3.8774,3.8911,3.8911,3.8922,3.883,3.8832,3.8834,3.8906,0,3.8063,3.8176,3.8215,3.8308,3.8367,3.8395,3.845,3.8505,3.8541,3.8597,3.8637,3.8699,3.8695,3.8721,3.8762,3.8806,3.885,3.8801,3.8882,3.8885,3.8867,3.8935,3.8935,3.9001,3.8916,3.8918,3.8919,0,3.8145,3.8207,3.8307,3.8382,3.8408,3.8456,3.8527,3.8579,3.8643,3.8667,3.8715,3.8739,3.8806,3.8789,3.8884,3.885,3.8885,3.8912,3.8916,3.8926,3.8905,3.8948,3.9022,3.9033,3.8934,3.8933,3.8932,0,3.8165,3.8272,3.8346,3.8379,3.8467,3.8501,3.8539,3.8602,3.8643,3.8705,3.8733,3.88,3.8838,3.889,3.8932,3.8915,3.9024,3.9009,3.9047,3.9047,3.907,3.9068,3.9152,3.909,3.909,3.9089,3.9089,0,3.8227,3.8288,3.8357,3.8403,3.8473,3.8517,3.8585,3.8625,3.8681,3.8736,3.8763,3.8814,3.8865,3.8924,3.8956,3.9032,3.9048,3.907,3.9078,3.9069,3.9066,3.9093,3.9091,3.9092,3.9091,3.9091,3.909,0,3.826,3.8308,3.8392,3.847,3.8492,3.854,3.8607,3.8653,3.8692,3.8761,3.878,3.8841,3.8911,3.8958,3.9047,3.907,3.9152,3.9158,3.9131,3.9136,3.9172,3.9169,3.9278,3.9295,3.9219,3.922,3.922,0,3.8297,3.8345,3.8429,3.8469,3.8508,3.8571,3.8614,3.866,3.8705,3.8783,3.882,3.8893,3.8953,3.9064,3.9116,3.9186,3.9195,3.9229,3.9205,3.9195,3.9199,3.9196,3.9202,3.9232,3.9233,3.9233,3.9234,0,3.8359,3.8382,3.8444,3.8515,3.8567,3.8625,3.8683,3.8714,3.877,3.8819,3.8892,3.8939,3.9032,3.9105,3.9179,3.9219,3.9237,3.9241,3.9254,3.9245,3.9228,3.9241,3.9143,3.9238,3.9238,3.9237,3.9237,3.9237,3.8397,3.8443,3.851,3.8579,3.8628,3.8683,3.8732,3.8778,3.884,3.892,3.8943,3.902,3.9085,3.9187,3.9229,3.929,3.9287,3.9304,3.931,3.9314,3.9315,3.9218,3.9303,3.9303,3.9303,3.9303,3.9303,0,3.8463,3.8508,3.8572,3.8654,3.8709,3.8721,3.8787,3.8833,3.89,3.896,3.902,3.9105,3.9176,3.9235,3.9309,3.9347,3.9357,3.9365,3.9363,3.9373,3.9313,3.9295,3.9356,3.9356,3.9356,3.9356,3.9356,3.9355,3.8504,3.8582,3.8613,3.8717,3.8762,3.8838,3.8875,3.8927,3.8975,3.907,3.9129,3.9168,3.9228,3.9307,3.9373,3.9389,3.9415,3.9422,3.9439,3.9382,3.9377,3.9371,3.9355,3.9427,3.9427,3.9495,3.9495,3.9496]}]]